Location: Chantarel
(45.1638°N, 1.7873°E)
Time: 20:52:15
(UTC+00:00)

Cosmos 1943 Rocket - Pass Details

Date: 03 March 2021
Orbit: 811 x 844 km, 71.0° (Epoch: 13 April)

Event Time Altitude Azimuth Distance (km) Brightness Sun altitude
Rises 20:43:23 0° 342° (NNW) 3,414 5.9 -31.8°
Reaches altitude 10° 20:46:29 10° 358° (N) 2,475 4.9 -32.3°
Enters shadow 20:48:16 16° 14° (NNE) 2,060 4.3 -32.6°
